This is the latest recevied weather packets stored in our database for station/object DO6MJ-1. If no packets are shown the sender has not sent any weather packets the latest 10 day(s).
| Time | Temp. | Humidity | Pressure | Rain* | Wind** | Luminosity | Snow |
|---|---|---|---|---|---|---|---|
| 1777915371 | 20.56° C | 58% | 1004.2 hPa | 0 mm | - | - | - |
| 1777914171 | 20.56° C | 57% | 1004.2 hPa | 0 mm | - | - | - |
| 1777912970 | 21.11° C | 57% | 1004.4 hPa | 0 mm | - | - | - |
| 1777911770 | 21.67° C | 57% | 1004.3 hPa | 0 mm | - | - | - |
| 1777910570 | 21.11° C | 56% | 1004.2 hPa | 0 mm | - | - | - |
| 1777909370 | 21.67° C | 55% | 1004.3 hPa | 0 mm | - | - | - |
| 1777908169 | 22.22° C | 53% | 1004.4 hPa | 0 mm | - | - | - |
| 1777906969 | 22.22° C | 53% | 1004.6 hPa | 0 mm | - | - | - |
| 1777905769 | 22.22° C | 54% | 1004.6 hPa | 0 mm | - | - | - |
| 1777904568 | 22.22° C | 56% | 1004.8 hPa | 0 mm | - | - | - |
| 1777903368 | 21.67° C | 60% | 1005 hPa | 0 mm | - | - | - |
| 1777902168 | 22.22° C | 56% | 1005.1 hPa | 0 mm | - | - | - |
| 1777900968 | 24.44° C | 55% | 1005 hPa | 0 mm | - | - | - |
| 1777899767 | 23.89° C | 60% | 1005.2 hPa | 0 mm | - | - | - |
| 1777898567 | 23.33° C | 67% | 1005.3 hPa | 0 mm | - | - | - |
| 1777897367 | 23.33° C | 63% | 1005.3 hPa | 0 mm | - | - | - |
| 1777896166 | 22.78° C | 55% | 1005.3 hPa | 0 mm | - | - | - |
| 1777894966 | 22.78° C | 55% | 1005.3 hPa | 0 mm | - | - | - |
| 1777893766 | 21.11° C | 59% | 1005.3 hPa | 0 mm | - | - | - |
| 1777892566 | 22.22° C | 56% | 1005.6 hPa | 0 mm | - | - | - |
| 1777891365 | 23.33° C | 51% | 1005.7 hPa | 0 mm | - | - | - |
| 1777890165 | 25° C | 49% | 1005.6 hPa | 0 mm | - | - | - |
| 1777888965 | 25.56° C | 51% | 1005.5 hPa | 0 mm | - | - | - |
| 1777887764 | 23.89° C | 56% | 1005.7 hPa | 0 mm | - | - | - |
| 1777886564 | 22.78° C | 58% | 1006.2 hPa | 0 mm | - | - | - |
* Rain latest hour (hover to see other rain measurements)
** Current wind speed in m/s (hover to see current wind gust speed)